Погода в Красной Поляне

Россия / Кировская область     56°14′40″N   51°09′10″E
темп.,
°C
ветер,
м/с
пор.,
м/с
влажн.,
%
обл.,
%
осадки,
мм/ч
давл.,
гПа
погр.,
м
16 мая, вс
вс1600:00+18ю3126160 0.0 1017226
03:00+16ю38605 0.0 1018136
06:00+20ю3125241 0.0 1017332
09:00+26ю6113713 0.0 1017662
12:00+29ююз693225 0.0 10171481
15:00+30ююз6103062 0.0 10162899
18:00+25ююз4104498 0.0 1016586
21:00+19ююз3106097 0.0 1016180
17 мая, пн
пн1700:00+17юз226227 0.0 101624
03:00+15зюз11718 0.0 101711
06:00+19ююз126293 0.0 1018151
09:00+25юз244497 0.0 1018766
12:00+28зюз4736100 0.0 10171515
15:00+28зюз4637100 0.0 10171800
18:00+26з23535 0.0 101787
21:00+19ссз22737 0.0 101815
18 мая, вт
вт1800:00+17с117272 0.0 101911
03:00+15ссв228038 0.5 101920
06:00+18св2472100 0.0 1020171
09:00+23всв2351100 0.0 1020742
12:00+26св3342100 0.0 10201189
15:00+26всв3337100 0.0 10201321
18:00+22всв2553100 0.0 1020155
21:00+17в276589 0.0 1021126
19 мая, ср
ср1900:00+15вюв297393 0.0 1021171
03:00+14вюв31177100 0.0 1021272
06:00+16вюв496832 0.0 1022337
09:00+20вюв464699 0.0 1021777
12:00+24вюв563585 0.0 10201228
15:00+25вюв563398 0.0 10191471
18:00+22в375097 0.0 1018330
21:00+18вюв3126595 0.0 1018307
20 мая, чт
чт2000:00+15вюв3107433 0.0 1018224
03:00+13вюв37743 0.0 1018124
06:00+18юв411574 0.0 1018382
09:00+23ююв58435 0.0 1017938
12:00+25ю69410 0.0 10171677
15:00+23ююз695499 0.1 10171613
18:00+18ю3664100 0.0 1017406
21:00+15ююв3108060 0.0 1017277